Flag for Brazil

Past Weather in Macaé, Rio de Janeiro, Brazil — Yesterday and Last 2 Weeks

Now
68 °F

Clear.


Feels Like: 68 °F
Forecast: 76 / 65 °F
Wind: 3 mph from West

Location: Macae Airport

Current Time: Jul 2, 2020 at 7:33:47 am

Latest Report: Jul 2, 2020 at 5:00 am


Visibility: 10 mi

Pressure: 29.95 "Hg

Humidity: 73%

Dew Point: 59 °F

Location of MacaéLocation

Past Weather in Macaé — Graph

°F

Macaé Temperature Yesterday

Maximum temperature yesterday: 88 °F (at 11:00 am)
Minimum temperature yesterday: 68 °F (at 2:00 am)
Average temperature yesterday: 76 °F

High & Low Weather Summary for the Past Weeks

 TemperatureHumidityPressure
High91 °F (Jun 20, 2:00 pm)100% (Jun 17, 5:00 am)30.36 "Hg (Jun 17, 5:00 am)
Low55 °F (Jun 23, 6:00 am)31% (Jun 23, 12:00 pm)29.71 "Hg (Jul 1, 1:00 pm)
Average72 °F77%30.05 "Hg
* Reported Jun 17 5:00 am — Jul 2 5:00 am, Macaé. Weather by CustomWeather, © 2020

Note: Actual official high and low records may vary slightly from our data, if they occured in-between our weather recording intervals... More about our weather records

Macaé Weather History for the Previous 24 Hours

Scroll right to see more
 ConditionsComfort  
Time TempWeatherWind HumidityBarometerVisibility
5:00 am
Thu, Jul 2
68 °FClear.3 mph73%29.95 "Hg10 mi
4:00 am70 °FClear.5 mph73%29.92 "Hg10 mi
3:00 am70 °FClear.7 mph73%29.92 "Hg10 mi
1:00 am72 °FOvercast.7 mph65%29.92 "HgN/A
11:00 pm
Wed, Jul 1
72 °FPassing clouds.7 mph65%29.89 "HgN/A
10:00 pm72 °FClear.9 mph69%29.89 "Hg10 mi
9:00 pm73 °FClear.8 mph69%29.86 "Hg10 mi
8:00 pm75 °FClear.12 mph74%29.86 "Hg10 mi
7:00 pm75 °FClear.3 mph69%29.77 "Hg10 mi
6:00 pm79 °FClear.3 mph65%29.77 "Hg10 mi
4:00 pm79 °FSunny.No wind79%29.74 "Hg10 mi
3:00 pm81 °FSunny.2 mph66%29.71 "Hg10 mi
2:00 pm84 °FSunny.3 mph51%29.71 "Hg10 mi
1:00 pm86 °FSunny.3 mph43%29.71 "Hg10 mi
11:00 am88 °FSunny.8 mph40%29.74 "Hg10 mi
10:00 am86 °FSunny.7 mph43%29.74 "Hg10 mi
8:00 am75 °FSunny.7 mph69%29.77 "Hg10 mi
7:00 am70 °FSunny.7 mph78%29.77 "Hg10 mi
Weather by CustomWeather, © 2020

See weather overview